STARLINK-32511, 61727

Orbit data source: Space-Track

STARLINK-32511, 61727 is a payload satellite owned by SpaceX/Seattle (US) in LEO that was launched on Wed, 30 Oct 2024 UTC via an FALCON 9 launch vehicle from the Air Force Eastern Test Range (AFETR). Payload-class satellites include a variety of spacecraft equipped with specific instruments for various scientific and technological missions. These include communications satellites like Starlink; space stations such as the ISS; scientific satellites like the Hubble; Earth observation satellites from companies like Planet Labs, Umbra, and HawkEye 360; GPS; miniature CubeSats for education and research; and military/defense satellites.

Loading next visibility...
Identifier
61727, 2024-196W
Orbit
LEO
Last TLE update
3 hours ago
Origin
Manufacturer
SpaceX/Seattle
Mission
Operational Commercial Communications
Bus & Motor
STARLINK V2M, Unknown motor
Mass
730 kg wet, ~700 kg dry
Launch date (UTC)
2024-10-30 (8 months ago)
Launch vehicle
FALCON 9
Launch site
Air Force Eastern Test Range (AFETR)
Object type
Payload
Rocket body
Debris
Shape & HBR
Box + 2 Pan, 29 m
Radar Cross Section
36.964 m², Large (>1 m²)

Expand to show TLE details & history

TLE from 3 hours ago
0 STARLINK-32511
1 61727U 24196W   25187.23707011  .00000381  00000-0  24984-4 0  9992
2 61727  53.1596 166.0807 0001147  91.9225 268.1907 15.30196745 39458
Epoch: 2025-07-06T05:41Z
TLE epoch observation values (Epoch: 2025-07-06T05:41:22.857Z)
Latitude
-0.00003°
Longitude
156.27179°
Altitude
476.149 km
Speed
7.629 km/s
True Right ascension
11h 04m 19s
True Declination
0° 00' 00"
Sunlit
Object was in daylight at epoch
Visualization orbit readout
Latitude
13.80713°
Longitude
166.20075°
Altitude
475.174 km
Speed
7.631 km/s
Apparent Right ascension
10h 31m 41s
Apparent Declination
-12° 47' 32"
Sunlit
Object is in daylight
Visualization observer readout
Local Sidereal Time
20:51:54
Azimuth
314.021° NW
Elevation
-55.107°
Doppler factor
1
Orbital elements
Apogee altitude
476.267 km
Perigee altitude
474.695 km
Semi-major axis
6,853.618 km
Eccentricity
0.00011
Inclination
53.1596°
RAAN
166.0807°
Arg. of periapsis
91.9225°
True anomaly
Unknown
Mean anomaly
268.1907°
Eccentric anomaly
Unknown
Mean motion
3.82528 °/min
Orbital period
94.11 mins
BSTAR
0.000024984
Loading maneuver chart data...
Loading SW <> Apogee altitude chart data...
Loading historical data...
Loading historical data...
Loading historical data...
Loading historical data...
Loading historical data...
Loading historical data...
Loading historical data...

STARLINK-32511 Visibility forecast

Observer location: undefined°, undefined°

Span
Click to sort rows by Start time (UTC) header in descending order
Start Az.
Max El. time (UTC)
Max El. Az.
Max El.
End time (UTC)
End Az.
5 mins2025-07-06 09:21:59.478Z281.649° WNW2025-07-06 09:24:59.478Z216.86° SW22.869°2025-07-06 09:26:59.478Z178.395° S
4 mins2025-07-07 00:40:59.478Z177.12° S2025-07-07 00:41:59.478Z148.616° SSE29.099°2025-07-07 00:44:59.478Z72.004° E
4 mins2025-07-07 02:18:59.478Z291.131° WNW2025-07-07 02:19:59.478Z318.579° NNW26.503°2025-07-07 02:22:59.478Z28.178° NE
5 mins2025-07-07 07:14:59.478Z334.655° NNW2025-07-07 07:16:59.478Z21.784° NNE28.86°2025-07-07 07:19:59.478Z93.611° ESE
|